Crossville, TN

1:43 PM CST on February 22, 2018 (GMT -0600)
Crossville Memorial-Whitson

Weather History for KCSV - February, 2013

Change the Weather History Date:

Wednesday, February 13, 2013

  Actual Average Record
Temperature  
Mean Temperature 40 °F 39 °F  
Max Temperature 44 °F 48 °F 79 °F (1962)
Min Temperature 35 °F 30 °F -4 °F (1955)
Degree Days  
Heating Degree Days 25    
Month to date heating degree days 334  
Since 1 July heating degree days 2724  
Cooling Degree Days 0    
Month to date cooling degree days 0  
Year to date cooling degree days 0  
Moisture  
Dew Point 35 °F    
Average Humidity 83    
Maximum Humidity 96    
Minimum Humidity 70    
Precipitation  
Precipitation 0.31 in 0.16 in 1.02 in (1984)
Month to date precipitation 1.33 2.06  
Year to date precipitation 8.46 6.82  
Sea Level Pressure  
Sea Level Pressure 29.80 in    
Wind  
Wind Speed 7 mph (WNW)    
Max Wind Speed 18 mph    
Max Gust Speed 29 mph    
Visibility 7 miles    
Events Rain    
T = Trace of Precipitation, MM = Missing Value Source: NWS Daily Summary

Daily Weather History Graph

Daily Weather History Graph

Search for Another Location

Airport or City:

Trip Planner

Search our weather history database for the weather conditions in past years. The results will help you decide how hot, cold, wet, or windy it might be!

Date:

Astronomy

Feb. 13, 2013 Rise Set
Actual Time 6:29 AM CST 5:20 PM CST
Civil Twilight 6:03 AM CST 5:46 PM CST
Nautical Twilight 5:33 AM CST 6:16 PM CST
Astronomical Twilight 5:03 AM CST 6:46 PM CST
Moon 8:07 AM CST (2/13) 9:12 PM CST (2/13)
Length of Visible Light 11h 43m
Length of Day
10h 50m
Waxing Crescent, 14% of the Moon is Illuminated
Feb 13
Waxing Crescent
Feb 17
First Quarter
Feb 25
Full
Mar 4
Last Quarter
Mar 11
New

Hourly Weather History & Observations

Time (CST) Temp. Windchill Dew Point Humidity Pressure Visibility Wind Dir Wind Speed Gust Speed Precip Events Conditions
12:53 AM 43.0 °F 39.5 °F 35.1 °F 74% 29.79 in 10.0 mi East 5.8 mph - N/A   Overcast
1:53 AM 41.0 °F 38.0 °F 37.0 °F 86% 29.75 in 8.0 mi Variable 4.6 mph - 0.04 in Rain Light Rain
2:40 AM 39.2 °F 35.9 °F 37.4 °F 93% 29.73 in 3.0 mi East 4.6 mph - 0.13 in Rain Rain
2:49 AM 39.2 °F 35.0 °F 37.4 °F 93% 29.73 in 5.0 mi East 5.8 mph - 0.14 in Rain Light Rain
2:53 AM 39.9 °F 36.7 °F 37.9 °F 93% 29.73 in 10.0 mi Variable 4.6 mph - 0.14 in   Overcast
3:08 AM 39.2 °F 35.9 °F 37.4 °F 93% 29.73 in 6.0 mi East 4.6 mph - 0.00 in   Overcast
3:53 AM 39.9 °F 36.7 °F 37.9 °F 93% 29.70 in 4.0 mi ESE 4.6 mph - 0.01 in   Overcast
4:20 AM 39.2 °F - 39.2 °F 100% 29.70 in 3.0 mi Calm Calm - 0.00 in   Overcast
4:37 AM 41.0 °F 38.0 °F 37.4 °F 87% 29.69 in 2.5 mi Variable 4.6 mph - 0.00 in   Overcast
4:53 AM 41.0 °F - 39.0 °F 93% 29.70 in 2.5 mi Calm Calm - 0.01 in Rain Light Rain
5:12 AM 41.0 °F 38.0 °F 39.2 °F 93% 29.69 in 1.8 mi East 4.6 mph - 0.01 in Rain Light Rain
5:19 AM 41.0 °F 39.0 °F 39.2 °F 93% 29.69 in 2.0 mi Variable 3.5 mph - 0.01 in Rain Light Rain
5:36 AM 39.2 °F 35.9 °F 39.2 °F 100% 29.68 in 1.8 mi ESE 4.6 mph - 0.02 in   Overcast
5:48 AM 39.2 °F - 39.2 °F 100% 29.68 in 2.5 mi Calm Calm - 0.02 in   Overcast
5:53 AM 39.9 °F 37.8 °F 39.0 °F 97% 29.70 in 2.5 mi SE 3.5 mph - 0.02 in   Overcast
6:27 AM 39.2 °F 37.0 °F 39.2 °F 100% 29.69 in 1.8 mi SE 3.5 mph - 0.02 in   Overcast
6:37 AM 39.2 °F 37.0 °F 39.2 °F 100% 29.69 in 2.0 mi SE 3.5 mph - 0.02 in   Overcast
6:53 AM 41.0 °F - 39.0 °F 93% 29.70 in 2.5 mi Calm Calm - 0.03 in   Overcast
7:13 AM 41.0 °F - 39.2 °F 93% 29.69 in 1.5 mi Calm Calm - N/A   Overcast
7:53 AM 42.1 °F - 39.9 °F 92% 29.69 in 1.0 mi Calm Calm - 0.01 in   Overcast
8:53 AM 43.0 °F 39.5 °F 41.0 °F 93% 29.70 in 1.2 mi Variable 5.8 mph - 0.01 in   Overcast
9:15 AM 44.6 °F 40.7 °F 41.0 °F 87% 29.70 in 3.0 mi WSW 6.9 mph - 0.01 in Rain Light Rain
9:22 AM 44.6 °F 40.7 °F 41.0 °F 87% 29.70 in 2.5 mi SW 6.9 mph - 0.02 in Rain Light Rain
9:30 AM 44.6 °F 40.2 °F 41.0 °F 87% 29.70 in 3.0 mi WSW 8.1 mph - 0.02 in Rain Light Rain
9:53 AM 43.0 °F 38.2 °F 39.9 °F 89% 29.71 in 7.0 mi WSW 8.1 mph 17.3 mph 0.03 in Rain Light Rain
10:05 AM 44.6 °F 40.2 °F 39.2 °F 81% 29.71 in 10.0 mi SW 8.1 mph - 0.00 in   Overcast
10:15 AM 42.8 °F 36.6 °F 39.2 °F 87% 29.71 in 9.0 mi WSW 11.5 mph 21.9 mph 0.00 in   Overcast
10:53 AM 43.0 °F 36.8 °F 39.9 °F 89% 29.72 in 10.0 mi WNW 11.5 mph 18.4 mph 0.01 in   Overcast
11:13 AM 42.8 °F 37.5 °F 39.2 °F 87% 29.73 in 10.0 mi West 9.2 mph 18.4 mph N/A   Overcast
11:25 AM 42.8 °F 35.4 °F 37.4 °F 81% 29.74 in 9.0 mi West 15.0 mph 21.9 mph N/A   Overcast
11:53 AM 39.0 °F 31.4 °F 36.0 °F 89% 29.77 in 4.0 mi NW 12.7 mph 23.0 mph N/A   Overcast
12:51 PM 37.4 °F 28.9 °F 32.0 °F 81% 29.77 in 10.0 mi NNW 13.8 mph 25.3 mph N/A   Overcast
12:53 PM 37.0 °F 28.1 °F 32.0 °F 82% 29.78 in 10.0 mi NW 15.0 mph 25.3 mph N/A   Overcast
1:34 PM 35.6 °F 28.0 °F 32.0 °F 87% 29.79 in 10.0 mi NW 10.4 mph 24.2 mph N/A   Overcast
1:53 PM 35.1 °F 26.4 °F 32.0 °F 89% 29.82 in 8.0 mi NNW 12.7 mph 20.7 mph N/A   Overcast
2:53 PM 35.1 °F 29.3 °F 32.0 °F 89% 29.84 in 7.0 mi NNW 6.9 mph - N/A   Overcast
3:20 PM 35.6 °F 29.9 °F 32.0 °F 87% 29.83 in 10.0 mi NNW 6.9 mph - N/A   Overcast
3:53 PM 36.0 °F 28.0 °F 32.0 °F 86% 29.87 in 10.0 mi NW 11.5 mph - N/A   Overcast
4:09 PM 35.6 °F 28.6 °F 30.2 °F 81% 29.86 in 10.0 mi NNW 9.2 mph 16.1 mph N/A   Overcast
4:44 PM 35.6 °F 29.2 °F 30.2 °F 81% 29.88 in 8.0 mi NNW 8.1 mph - N/A   Overcast
4:53 PM 35.1 °F 29.3 °F 32.0 °F 89% 29.90 in 7.0 mi NNW 6.9 mph - N/A   Overcast
5:00 PM 35.6 °F 30.7 °F 32.0 °F 87% 29.88 in 7.0 mi NNW 5.8 mph - N/A   Overcast
5:53 PM 35.1 °F - 30.9 °F 85% 29.92 in 9.0 mi Calm Calm - N/A   Overcast
6:04 PM 35.6 °F 31.7 °F 30.2 °F 81% 29.90 in 10.0 mi WNW 4.6 mph - N/A   Overcast
6:24 PM 35.6 °F 31.7 °F 30.2 °F 81% 29.91 in 10.0 mi West 4.6 mph - N/A   Overcast
6:53 PM 35.1 °F 31.0 °F 30.9 °F 85% 29.95 in 10.0 mi NW 4.6 mph - N/A   Overcast
7:14 PM 35.6 °F 30.7 °F 30.2 °F 81% 29.93 in 10.0 mi WNW 5.8 mph - N/A   Overcast
7:53 PM 35.1 °F 31.0 °F 30.9 °F 85% 29.95 in 10.0 mi WNW 4.6 mph - N/A   Overcast
8:53 PM 35.1 °F - 30.9 °F 85% 29.96 in 10.0 mi Calm Calm - N/A   Overcast
9:53 PM 35.1 °F 31.0 °F 30.9 °F 85% 29.98 in 10.0 mi WSW 4.6 mph - N/A   Overcast
10:53 PM 35.1 °F 32.2 °F 32.0 °F 89% 29.99 in 10.0 mi West 3.5 mph - N/A   Overcast
10:59 PM 35.6 °F 32.8 °F 30.2 °F 81% 29.97 in 10.0 mi WSW 3.5 mph - N/A   Overcast
11:15 PM 35.6 °F - 32.0 °F 87% 29.97 in 10.0 mi Calm Calm - N/A   Overcast
11:28 PM 35.6 °F 32.8 °F 32.0 °F 87% 29.97 in 10.0 mi Variable 3.5 mph - N/A   Overcast
11:50 PM 35.6 °F 31.7 °F 32.0 °F 87% 29.98 in 10.0 mi WSW 4.6 mph - N/A   Overcast
11:53 PM 35.1 °F - 32.0 °F 89% 30.01 in 10.0 mi Calm Calm - N/A   Overcast